Date String (YYYY-MM-DD hh:mm:ss) UTC,Instrument flags,absolute air pressure of the measurement (hPa),sample flow rate (lpm),inlet stack bypass flow (lpm),air temperature of the measurement (°C),ambient temperature measured by the external sensor (°C),aerosol sample conditioner tube jacket temperature (°C),OPC LED temperature (°C),internal box temperature (°C),relative humidity of the measurement (%),span deviation,mass concentration of particles derived from Lorenz-Mie calculation of OPC scattering (μg/m³),mass concentration of particles derived from Lorenz-Mie calculation of OPC scattering (μg/m³),mass concentration of particles derived from Lorenz-Mie calculation of OPC scattering (μg/m³)
DateTimeUTC,F1_M11,P_M11,Q1_M11,Q2_M11,T1_M11,T2_M11,T3_M11,T4_M11,T5_M11,U1_M11,ZSPAN_M11,X0_M11,X2_M11,X1_M11
2023-08-22 11:00:00,SystemResetWarning,0835.1,5.00,000.00,028.0,024.9,000.0,036.6,029.4,19.3,0002.4,0016.20,0007.68,0006.43
2023-08-22 11:01:00,SystemResetWarning,0835.2,5.00,000.00,028.0,025.3,000.0,036.6,029.5,19.2,0002.7,0016.90,0007.71,0006.46
2023-08-22 11:02:00,SystemResetWarning,0835.2,5.00,000.00,028.0,025.7,000.0,036.6,029.6,19.2,0003.0,0016.85,0007.76,0006.49
2023-08-22 11:03:00,SystemResetWarning,0835.1,5.00,000.00,028.0,025.9,000.0,036.6,029.7,19.4,0003.2,0017.35,0007.79,0006.52
2023-08-22 11:04:00,SystemResetWarning,0835.1,4.99,000.00,028.1,026.2,000.0,036.6,029.7,19.5,0003.2,0018.30,0007.82,0006.55
2023-08-22 11:05:00,SystemResetWarning,0835.1,5.00,000.00,028.1,026.4,000.0,036.6,029.8,19.6,0003.1,0017.85,0007.80,0006.55
2023-08-22 11:06:00,SystemResetWarning,0835.2,4.99,000.00,028.1,026.6,000.0,036.6,029.8,19.4,0002.5,0017.78,0007.78,0006.55
2023-08-22 11:07:00,SystemResetWarning,0835.1,5.00,000.00,028.1,026.7,000.0,036.6,029.8,19.2,0002.1,0018.80,0007.82,0006.54
2023-08-22 11:08:00,SystemResetWarning,0835.2,5.00,000.00,028.2,026.8,000.0,036.7,029.9,19.1,0001.7,0018.87,0007.88,0006.54
2023-08-22 11:09:00,SystemResetWarning,0835.2,5.00,000.00,028.2,027.0,000.0,036.7,029.9,19.1,0001.2,0018.66,0007.86,0006.54
2023-08-22 11:10:00,SystemResetWarning,0835.2,5.00,000.00,028.2,027.0,000.0,036.7,030.0,19.1,0000.9,0018.54,0007.87,0006.54
2023-08-22 11:11:00,SystemResetWarning,0835.2,5.00,000.00,028.3,027.1,000.0,036.7,030.0,19.0,0001.2,0018.37,0007.84,0006.53
2023-08-22 11:12:00,SystemResetWarning,0835.2,5.00,000.00,028.3,027.2,000.0,036.7,030.0,18.9,0001.3,0017.56,0007.85,0006.54
2023-08-22 11:13:00,SystemResetWarning,0835.2,5.01,000.00,028.3,027.3,000.0,036.8,030.1,18.9,0000.9,0017.77,0007.82,0006.54
2023-08-22 11:14:00,SystemResetWarning,0835.2,5.00,000.00,028.4,027.3,000.0,036.8,030.1,18.8,0000.9,0017.92,0007.85,0006.53
2023-08-22 11:15:00,SystemResetWarning,0835.1,5.00,000.00,028.4,027.4,000.0,036.8,030.2,18.8,0000.9,0017.01,0007.87,0006.51
2023-08-22 11:16:00,SystemResetWarning,0835.1,4.99,000.00,028.5,027.3,000.0,036.8,030.2,18.7,0001.2,0017.05,0007.86,0006.52
2023-08-22 11:17:00,SystemResetWarning,0835.1,4.98,000.00,028.4,025.7,000.0,036.7,030.0,18.7,0001.4,0016.81,0007.85,0006.51
2023-08-22 11:18:00,SystemResetWarning,0835.1,5.01,000.00,028.4,024.5,000.0,036.6,029.8,18.8,0001.3,0016.07,0007.79,0006.50
2023-08-22 11:19:00,SystemResetWarning,0835.1,5.00,000.00,028.3,024.5,000.0,036.6,029.7,18.9,0001.6,0016.04,0007.74,0006.49
2023-08-22 11:20:00,SystemResetWarning,0835.1,5.00,000.00,028.2,024.8,000.0,036.7,029.6,19.2,0001.9,0016.52,0007.67,0006.48
2023-08-22 11:21:00,SystemResetWarning,0835.1,5.00,000.00,028.2,025.2,000.0,036.7,029.6,19.4,0001.8,0016.74,0007.61,0006.48
2023-08-22 11:22:00,SystemResetWarning,0835.1,5.00,000.00,028.2,025.5,000.0,036.7,029.7,19.7,0001.7,0017.49,0007.59,0006.49
2023-08-22 11:23:00,SystemResetWarning,0835.1,4.99,000.00,028.2,025.9,000.0,036.7,029.8,19.4,0001.0,0017.84,0007.57,0006.49
2023-08-22 11:24:00,SystemResetWarning,0835.2,4.99,000.00,028.2,026.1,000.0,036.7,029.8,19.4,0001.0,0018.38,0007.58,0006.48
2023-08-22 11:25:00,SystemResetWarning,0835.1,5.00,000.00,028.2,026.4,000.0,036.7,029.9,19.8,0000.9,0017.97,0007.52,0006.45
2023-08-22 11:26:00,SystemResetWarning,0835.1,5.00,000.00,028.2,026.6,000.0,036.7,029.9,19.5,0000.6,0018.17,0007.53,0006.45
2023-08-22 11:27:00,SystemResetWarning,0835.2,5.01,000.00,028.2,026.7,000.0,036.7,029.9,19.0,0000.5,0018.37,0007.56,0006.43
2023-08-22 11:28:00,SystemResetWarning,0835.1,5.00,000.00,028.3,026.9,000.0,036.8,030.0,19.0,0001.0,0018.31,0007.52,0006.43
2023-08-22 11:29:00,SystemResetWarning,0835.1,5.01,000.00,028.3,027.0,000.0,036.8,030.0,19.0,0001.3,0017.97,0007.51,0006.41
2023-08-22 11:30:00,SystemResetWarning,0835.1,5.00,000.00,028.3,027.1,000.0,036.8,030.0,18.9,0001.2,0017.43,0007.48,0006.39
2023-08-22 11:31:00,SystemResetWarning,0835.2,4.99,000.00,028.4,027.1,000.0,036.8,030.1,18.8,0001.2,0016.33,0007.45,0006.37
2023-08-22 11:32:00,SystemResetWarning,0835.1,5.00,000.00,028.4,027.2,000.0,036.8,030.1,18.7,0001.4,0015.56,0007.45,0006.37
2023-08-22 11:33:00,SystemResetWarning,0835.2,5.00,000.00,028.4,027.3,000.0,036.8,030.1,19.0,0001.5,0014.59,0007.45,0006.36
2023-08-22 11:34:00,SystemResetWarning,0835.2,5.00,000.00,028.5,027.3,000.0,036.9,030.2,19.2,0001.9,0014.52,0007.50,0006.37
2023-08-22 11:35:00,SystemResetWarning,0835.2,4.99,000.00,028.5,027.0,000.0,036.9,030.1,19.2,0002.0,0014.32,0007.54,0006.39
2023-08-22 11:36:00,SystemResetWarning,0835.2,5.00,000.00,028.4,025.1,000.0,036.8,029.9,18.9,0002.0,0014.06,0007.58,0006.43
2023-08-22 11:37:00,SystemResetWarning,0835.1,5.01,000.00,028.4,024.5,000.0,036.7,029.7,18.8,0002.2,0013.83,0007.54,0006.43
2023-08-22 11:38:00,SystemResetWarning,0835.2,5.00,000.00,028.2,024.6,000.0,036.7,029.5,18.9,0002.0,0013.23,0007.52,0006.43
2023-08-22 11:39:00,SystemResetWarning,0835.1,5.00,000.00,028.2,024.9,000.0,036.7,029.5,19.0,0001.8,0013.15,0007.56,0006.42
2023-08-22 11:40:00,SystemResetWarning,0835.2,5.00,000.00,028.2,025.3,000.0,036.7,029.6,18.9,0001.8,0013.18,0007.56,0006.43
2023-08-22 11:41:00,SystemResetWarning,0835.2,5.00,000.00,028.2,025.7,000.0,036.7,029.7,18.9,0001.9,0013.13,0007.53,0006.43
2023-08-22 11:42:00,SystemResetWarning,0835.2,4.99,000.00,028.2,026.0,000.0,036.7,029.8,19.1,0001.6,0013.26,0007.50,0006.41
2023-08-22 11:43:00,SystemResetWarning,0835.2,5.00,000.00,028.2,026.2,000.0,036.7,029.8,19.3,0001.7,0013.21,0007.44,0006.38
2023-08-22 11:44:00,SystemResetWarning,0835.3,5.00,000.00,028.2,026.4,000.0,036.7,029.9,19.1,0001.3,0013.18,0007.42,0006.37
2023-08-22 11:45:00,SystemResetWarning,0835.3,5.00,000.00,028.2,026.6,000.0,036.8,029.9,19.3,0001.3,0013.20,0007.38,0006.34
2023-08-22 11:46:00,SystemResetWarning,0835.3,5.00,000.00,028.3,026.8,000.0,036.8,029.9,19.4,0001.6,0012.46,0007.31,0006.31
2023-08-22 11:47:00,SystemResetWarning,0835.2,5.01,000.00,028.3,026.9,000.0,036.8,030.0,19.4,0001.9,0012.54,0007.31,0006.28
2023-08-22 11:48:00,SystemResetWarning,0835.2,5.01,000.00,028.3,027.0,000.0,036.8,030.0,19.4,0001.9,0012.98,0007.36,0006.30
2023-08-22 11:49:00,SystemResetWarning,0835.2,5.00,000.00,028.4,027.1,000.0,036.8,030.1,19.0,0001.9,0013.05,0007.37,0006.30
2023-08-22 11:50:00,SystemResetWarning,0835.2,5.00,000.00,028.4,027.2,000.0,036.8,030.1,18.8,0002.1,0013.09,0007.38,0006.33
2023-08-22 11:51:00,SystemResetWarning,0835.2,4.99,000.00,028.4,027.3,000.0,036.9,030.1,18.9,0002.1,0013.37,0007.49,0006.35
2023-08-22 11:52:00,SystemResetWarning,0835.3,4.99,000.00,028.5,027.3,000.0,036.9,030.2,18.8,0002.3,0013.59,0007.58,0006.39
2023-08-22 11:53:00,SystemResetWarning,0835.2,5.00,000.00,028.5,027.1,000.0,036.9,030.2,18.8,0002.3,0013.60,0007.66,0006.45
2023-08-22 11:54:00,SystemResetWarning,0835.3,5.00,000.00,028.5,025.4,000.0,036.8,029.9,18.9,0002.1,0014.50,0007.77,0006.48
2023-08-22 11:55:00,SystemResetWarning,0835.2,5.01,000.00,028.4,024.5,000.0,036.7,029.7,19.0,0002.1,0015.05,0007.81,0006.47
2023-08-22 11:56:00,SystemResetWarning,0835.3,5.00,000.00,028.3,024.6,000.0,036.7,029.5,18.9,0002.1,0014.91,0007.71,0006.43
2023-08-22 11:57:00,SystemResetWarning,0835.3,5.00,000.00,028.2,024.9,000.0,036.7,029.5,18.9,0001.7,0014.82,0007.65,0006.42
2023-08-22 11:58:00,SystemResetWarning,0835.3,5.00,000.00,028.2,025.3,000.0,036.7,029.6,18.9,0001.0,0014.95,0007.65,0006.42
2023-08-22 11:59:00,SystemResetWarning,0835.3,5.00,000.00,028.2,025.6,000.0,036.7,029.7,19.0,0000.8,0014.84,0007.61,0006.40
